Waarnemingen

Advertentie
Mijn weer
Koblenz/Falkensteinkaserne, Duitsland (10516): temperatuur & dauwpunt: 15.01.2017 01:00:00 - 21.01.2017 01:00:00 (CET)Koblenz/Falkensteinkaserne, Duitsland (10516): windsnelheid: 15.01.2017 01:00:00 - 21.01.2017 01:00:00 (CET)Koblenz/Falkensteinkaserne, Duitsland (10516): windrichting: 15.01.2017 01:00:00 - 21.01.2017 01:00:00 (CET)Koblenz/Falkensteinkaserne, Duitsland (10516): luchtdruk: 15.01.2017 01:00:00 - 21.01.2017 01:00:00 (CET)Koblenz/Falkensteinkaserne, Duitsland (10516): zicht: 15.01.2017 01:00:00 - 21.01.2017 01:00:00 (CET)
Datum & Tijd tt [°C] td [°C] ff [km/u] ff [kn] dd ppp [hPa] vv [km]
21.01.2017 01:00:00 - - - - - - -
21.01.2017 00:00:00 -5,9 -8,3 7 4 N 1033,7 -
20.01.2017 23:00:00 -5,5 -8,2 4 2 N 1033,8 -
20.01.2017 22:00:00 -4,9 -8,1 4 2 N 1033,7 -
20.01.2017 21:00:00 -4,2 -8,0 4 2 ZW 1033,8 15
20.01.2017 20:00:00 -3,5 -7,6 4 2 N 1033,9 20
20.01.2017 19:00:00 -2,5 -7,7 7 4 N 1033,7 20
20.01.2017 18:00:00 -1,9 -8,3 4 2 ZW 1033,8 20
20.01.2017 17:00:00 -0,3 -9,9 4 2 WNW 1033,7 15
20.01.2017 16:00:00 0,7 -10,9 4 2 NW 1033,8 12
20.01.2017 15:00:00 0,1 -10,3 4 2 N 1034,1 12
20.01.2017 14:00:00 -0,9 -11,3 4 2 NW 1034,8 12
20.01.2017 13:00:00 -2,5 -10,0 4 2 N 1035,5 12
20.01.2017 12:00:00 -4,5 -10,2 4 2 N 1036,1 12
20.01.2017 11:00:00 -6,2 -10,0 4 2 NNW 1036,9 12
20.01.2017 10:00:00 -7,5 -9,6 4 2 ZW 1036,9 15
20.01.2017 09:00:00 -9,1 -10,6 4 2 N 1037,2 15
20.01.2017 08:00:00 -8,7 -10,1 7 4 N 1036,8 15
20.01.2017 07:00:00 -8,9 -10,2 4 2 N 1036,7 15
20.01.2017 06:00:00 -8,6 -9,9 4 2 N 1036,7 -
20.01.2017 05:00:00 -8,9 -10,4 4 2 N 1036,9 -
20.01.2017 04:00:00 -8,7 -10,2 4 2 N 1036,9 -
20.01.2017 03:00:00 -7,8 -9,1 4 2 N 1036,9 -
20.01.2017 02:00:00 -8,0 -9,7 0 0 N 1036,7 -
20.01.2017 01:00:00 -7,4 -9,3 4 2 N 1037,0 -
20.01.2017 00:00:00 -6,5 -8,5 4 2 N 1037,6 -
19.01.2017 23:00:00 -6,2 -8,5 4 2 N 1037,6 -
19.01.2017 22:00:00 -5,5 -8,2 4 2 N 1037,6 -
19.01.2017 21:00:00 -4,8 -7,9 4 2 N 1037,4 15
19.01.2017 20:00:00 -4,9 -7,8 4 2 ZW 1037,3 15
19.01.2017 19:00:00 -2,9 -7,4 7 4 N 1037,1 15
19.01.2017 18:00:00 -3,1 -8,4 4 2 W 1037,0 20
19.01.2017 17:00:00 -1,0 -8,8 4 2 NW 1036,6 15
19.01.2017 16:00:00 -0,2 -8,8 7 4 WNW 1036,7 10
19.01.2017 15:00:00 -0,8 -8,8 7 4 WNW 1037,0 12
19.01.2017 14:00:00 -1,5 -8,9 4 2 N 1037,3 12
19.01.2017 13:00:00 -3,2 -9,6 7 4 NNW 1038,1 12
19.01.2017 12:00:00 -4,6 -9,3 4 2 N 1038,8 12
19.01.2017 11:00:00 -6,4 -9,7 7 4 N 1039,4 9
19.01.2017 10:00:00 -7,8 -10,1 7 4 N 1039,2 9
19.01.2017 09:00:00 -9,1 -10,8 4 2 NW 1039,0 9
19.01.2017 08:00:00 -9,2 -10,7 4 2 WNW 1038,8 9
19.01.2017 07:00:00 - - - - - - -
19.01.2017 06:00:00 - - - - - - -
19.01.2017 05:00:00 - - - - - - -
19.01.2017 04:00:00 - - - - - - -
19.01.2017 03:00:00 - - - - - - -
19.01.2017 02:00:00 - - - - - - -
19.01.2017 01:00:00 -6,4 -8,3 4 2 N 1038,8 -
19.01.2017 00:00:00 -6,1 -8,4 4 2 NNW 1038,6 -
18.01.2017 23:00:00 -5,5 -8,0 4 2 NNO 1038,9 -
18.01.2017 22:00:00 -4,5 -8,0 4 2 NNO 1038,7 -
18.01.2017 21:00:00 -4,0 -7,5 4 2 NW 1038,7 20
18.01.2017 20:00:00 -2,5 -7,8 7 4 NNO 1038,6 20
18.01.2017 19:00:00 -2,7 -8,1 4 2 NNO 1038,6 15
18.01.2017 18:00:00 -1,1 -7,9 7 4 NO 1038,5 15
18.01.2017 17:00:00 -0,4 -8,6 7 4 NO 1038,6 12
18.01.2017 16:00:00 -0,3 -8,1 4 2 N 1038,7 12
18.01.2017 15:00:00 -0,9 -8,5 7 4 NW 1038,6 12
18.01.2017 14:00:00 -1,5 -8,7 7 4 NW 1038,8 12
18.01.2017 13:00:00 -1,7 -8,5 11 6 ONO 1039,2 12
18.01.2017 12:00:00 -3,9 -8,1 7 4 NW 1040,3 12
18.01.2017 11:00:00 -4,6 -8,4 4 2 W 1040,2 15
18.01.2017 10:00:00 -6,5 -8,9 4 2 NW 1040,5 15
18.01.2017 09:00:00 -7,1 -9,2 7 4 N 1040,3 15
18.01.2017 08:00:00 -7,2 -9,2 4 2 NW 1039,8 18
18.01.2017 07:00:00 -7,5 -9,4 4 2 NO 1039,4 18
18.01.2017 06:00:00 -7,5 -9,2 7 4 NNW 1039,4 -
18.01.2017 05:00:00 -7,6 -9,3 4 2 NW 1039,4 -
18.01.2017 04:00:00 -7,1 -8,4 4 2 N 1039,3 -
18.01.2017 03:00:00 -6,9 -8,3 4 2 N 1039,3 -
18.01.2017 02:00:00 -6,6 -8,1 4 2 WZW 1039,5 -
18.01.2017 01:00:00 -5,9 -8,1 4 2 N 1039,2 -
18.01.2017 00:00:00 -5,5 -7,8 4 2 N 1038,9 -
17.01.2017 23:00:00 -5,7 -7,9 4 2 N 1038,8 -
17.01.2017 22:00:00 -4,7 -7,4 7 4 NW 1038,9 -
17.01.2017 21:00:00 -3,4 -7,1 7 4 NNO 1038,4 18
17.01.2017 20:00:00 -2,9 -6,6 11 6 NNO 1038,5 20
17.01.2017 19:00:00 -2,7 -6,2 7 4 NNO 1038,0 25
17.01.2017 18:00:00 -2,1 -6,1 7 4 N 1037,5 25
17.01.2017 17:00:00 -1,2 -5,8 7 4 N 1037,2 25
17.01.2017 16:00:00 -0,6 -6,0 11 6 N 1036,9 25
17.01.2017 15:00:00 -0,6 -6,0 11 6 NNW 1036,9 25
17.01.2017 14:00:00 -0,5 -6,3 11 6 N 1036,9 20
17.01.2017 13:00:00 -0,6 -6,4 11 6 NNW 1037,3 20
17.01.2017 12:00:00 -2,0 -6,8 7 4 NNW 1037,4 20
17.01.2017 11:00:00 -2,8 -7,6 7 4 NNW 1037,4 20
17.01.2017 10:00:00 -4,1 -7,6 4 2 NNO 1037,2 20
17.01.2017 09:00:00 -4,4 -6,8 4 2 WNW 1036,6 15
17.01.2017 08:00:00 -4,4 -6,7 4 2 NNO 1036,4 15
17.01.2017 07:00:00 -5,0 -7,1 7 4 N 1036,1 15
17.01.2017 06:00:00 -5,2 -7,6 4 2 NW 1035,6 -
17.01.2017 05:00:00 -5,3 -7,6 7 4 NNW 1035,2 -
17.01.2017 04:00:00 -5,3 -7,2 7 4 NW 1034,9 -
17.01.2017 03:00:00 -6,3 -7,6 4 2 N 1034,8 -
17.01.2017 02:00:00 -7,0 -8,3 4 2 N 1034,0 -
17.01.2017 01:00:00 -5,5 -6,6 4 2 N 1033,3 -
17.01.2017 00:00:00 -5,2 -6,5 4 2 N 1033,0 -
16.01.2017 23:00:00 -4,6 -5,9 4 2 N 1032,4 -
16.01.2017 22:00:00 -4,6 -6,0 4 2 N 1031,8 -
16.01.2017 21:00:00 -3,9 -5,7 4 2 N 1030,9 20
16.01.2017 20:00:00 -3,2 -5,3 4 2 N 1030,3 20
16.01.2017 19:00:00 -2,2 -5,1 4 2 NNO 1029,5 25
16.01.2017 18:00:00 -1,0 -5,1 7 4 N 1029,0 25
16.01.2017 17:00:00 0,3 -5,4 11 6 N 1028,5 20
16.01.2017 16:00:00 1,2 -6,4 11 6 NNO 1027,9 15
16.01.2017 15:00:00 1,2 -6,5 7 4 N 1027,5 15
16.01.2017 14:00:00 1,4 -6,9 7 4 N 1027,2 15
16.01.2017 13:00:00 0,9 -5,9 7 4 ONO 1027,3 10
16.01.2017 12:00:00 0,0 -4,6 7 4 O 1027,4 7
16.01.2017 11:00:00 -0,4 -2,1 7 4 NNO 1027,1 6
16.01.2017 10:00:00 -0,8 -1,9 4 2 NNW 1026,6 6
16.01.2017 09:00:00 -1,3 -2,3 4 2 N 1026,1 8
16.01.2017 08:00:00 -1,1 -2,2 4 2 W 1025,5 7
16.01.2017 07:00:00 -1,0 -2,0 4 2 N 1024,9 6
16.01.2017 06:00:00 -0,8 -1,9 4 2 N 1024,5 -
16.01.2017 05:00:00 -0,8 -1,8 4 2 N 1024,4 -
16.01.2017 04:00:00 -0,9 -1,9 4 2 N 1024,2 -
16.01.2017 03:00:00 -1,0 -1,9 4 2 NNO 1024,1 -
16.01.2017 02:00:00 -0,9 -1,8 4 2 N 1024,0 -
16.01.2017 01:00:00 -1,0 -1,9 4 2 N 1023,9 -
16.01.2017 00:00:00 -1,1 -2,2 4 2 N 1024,0 -
15.01.2017 23:00:00 -0,6 -1,8 4 2 N 1023,8 -
15.01.2017 22:00:00 -0,3 -2,3 0 0 N 1023,5 -
15.01.2017 21:00:00 -0,4 -2,7 4 2 N 1023,2 -
15.01.2017 20:00:00 -0,8 -2,1 4 2 N 1023,1 -
15.01.2017 19:00:00 -1,3 -2,4 0 0 N 1022,7 15
15.01.2017 18:00:00 -0,5 -1,7 4 2 WZW 1022,2 -
15.01.2017 17:00:00 0,4 -1,7 4 2 NW 1021,9 -
15.01.2017 16:00:00 1,5 -1,5 4 2 NW 1021,8 -
15.01.2017 15:00:00 1,6 -1,2 7 4 N 1021,6 -
15.01.2017 14:00:00 1,9 -1,9 11 6 NNW 1021,7 -
15.01.2017 13:00:00 2,4 -1,2 4 2 ZW 1021,7 -
15.01.2017 12:00:00 0,9 -1,4 7 4 N 1021,8 -
15.01.2017 11:00:00 0,3 -1,2 7 4 NW 1021,8 -
15.01.2017 10:00:00 0,4 -1,5 4 2 N 1021,4 -
15.01.2017 09:00:00 0,4 -2,0 11 6 NW 1020,8 -
15.01.2017 08:00:00 0,2 -1,4 7 4 N 1020,2 -
15.01.2017 07:00:00 0,2 -1,0 7 4 N 1019,7 -
15.01.2017 06:00:00 0,0 -1,0 7 4 NNW 1019,0 -
15.01.2017 05:00:00 0,9 -2,2 11 6 NW 1018,6 -
15.01.2017 04:00:00 1,5 -1,8 11 6 WNW 1018,2 -
15.01.2017 03:00:00 0,8 -1,4 7 4 N 1018,1 -
15.01.2017 02:00:00 1,6 -1,9 14 8 NW 1017,7 -
15.01.2017 01:00:00 1,5 -1,8 11 6 NW 1017,4 -

tt = temperatuur
td = dauwpunt
ff = windsnelheid
dd = windrichting
ppp = luchtdruk
vv = zicht

Weerstations in de omgeving